Weather History for Kalamata, Greece

Change the Weather History Date:

Friday, September 7, 2012

  Actual Average Record
Temperature  
Mean Temperature 78 °F -  
Max Temperature 87 °F 82 °F 91 °F (2008)
Min Temperature 69 °F 60 °F 51 °F (2007)
Cooling Degree Days 13    
Growing Degree Days 28 (Base 50)    
Moisture  
Dew Point 63 °F    
Average Humidity 65    
Maximum Humidity 94    
Minimum Humidity 35    
Precipitation  
Precipitation 0.00 in 0.06 in - ()
Sea Level Pressure  
Sea Level Pressure 29.94 in    
Wind  
Wind Speed 6 mph ()    
Max Wind Speed 16 mph    
Max Gust Speed 24 mph    
Visibility 5.8 miles    
Events Rain , Thunderstorm    
Averages and records for this station are not official NWS values.
T = Trace of Precipitation, MM = Missing Value Source: Averaged Metar Reports

Daily Weather History Graph

Daily Weather History Graph

Search for Another Location

Airport:

Trip Planner

Search our weather history database for the weather conditions in past years. The results will help you decide how hot, cold, wet, or windy it might be!

Date:

Astronomy

Sep. 07, 2012 Rise Set
Actual Time 7:07 AM EEST 7:51 PM EEST
Civil Twilight 6:41 AM EEST 8:17 PM EEST
Nautical Twilight 6:10 AM EEST 8:48 PM EEST
Astronomical Twilight 5:38 AM EEST 9:20 PM EEST
Moon 11:42 PM EEST (9/7) 1:33 PM EEST (9/7)
Length of Visible Light 13h 36m
Length of Day
12h 43m
Waning Gibbous, 61% of the Moon is Illuminated
Sep 7
Waning Gibbous
Sep 8
Last Quarter
Sep 16
New
Sep 22
First Quarter
Sep 30
Full

Hourly Weather History & Observations

Time (EEST) Temp. Heat Index Dew Point Humidity Pressure Visibility Wind Dir Wind Speed Gust Speed Precip Events Conditions
2:50 AM 69.8 °F - 62.6 °F 78% 29.92 in - Calm Calm - N/A   Clear
5:50 AM 71.6 °F - 62.6 °F 73% 29.89 in - North 9.2 mph - N/A   Clear
6:20 AM 73.4 °F - 62.6 °F 69% 29.89 in - NNW 8.1 mph - N/A   Clear
6:50 AM 73.4 °F - 62.6 °F 69% 29.89 in - North 9.2 mph - N/A   Clear
7:20 AM 71.6 °F - 62.6 °F 73% 29.89 in - Calm Calm - N/A   Clear
7:50 AM 69.8 °F - 62.6 °F 78% 29.92 in - North 4.6 mph - N/A   Clear
8:20 AM 75.2 °F - 64.4 °F 69% 29.92 in - NNE 12.7 mph - N/A   Clear
8:50 AM 77.0 °F - 62.6 °F 61% 29.92 in - NNE 12.7 mph 24.2 mph N/A   Clear
9:20 AM 78.8 °F - 62.6 °F 57% 29.92 in - NNE 12.7 mph - N/A   Clear
9:50 AM 80.6 °F 81.8 °F 62.6 °F 54% 29.92 in - NNE 11.5 mph - N/A   Clear
10:20 AM 82.4 °F 83.4 °F 62.6 °F 51% 29.95 in - NE 9.2 mph - N/A   Clear
10:50 AM 84.2 °F 84.4 °F 60.8 °F 45% 29.95 in - Calm Calm - N/A   Clear
11:20 AM 86.0 °F 84.9 °F 57.2 °F 37% 29.95 in 6.2 mi SSE 5.8 mph - N/A   Partly Cloudy
11:50 AM 86.0 °F 84.5 °F 55.4 °F 35% 29.95 in 6.2 mi South 4.6 mph - N/A   Partly Cloudy
12:20 PM 86.0 °F 85.4 °F 59.0 °F 40% 29.92 in 6.2 mi SSE 6.9 mph - N/A   Partly Cloudy
12:50 PM 86.0 °F 86.1 °F 60.8 °F 43% 29.92 in 6.2 mi South 9.2 mph - N/A   Partly Cloudy
1:20 PM 86.0 °F 86.6 °F 62.6 °F 45% 29.92 in 6.2 mi South 10.4 mph - N/A   Partly Cloudy
1:50 PM 87.8 °F 87.1 °F 59.0 °F 38% 29.92 in 6.2 mi South 11.5 mph - N/A   Partly Cloudy
2:20 PM 87.8 °F 87.1 °F 59.0 °F 38% 29.92 in 6.2 mi South 13.8 mph - N/A   Scattered Clouds
2:50 PM 87.8 °F 87.6 °F 60.8 °F 40% 29.92 in 6.2 mi South 15.0 mph - N/A   Scattered Clouds
3:20 PM 87.8 °F 87.6 °F 60.8 °F 40% 29.92 in 6.2 mi South 16.1 mph - N/A   Scattered Clouds
3:50 PM 86.0 °F 86.1 °F 60.8 °F 43% 29.92 in 6.2 mi South 13.8 mph - N/A   Scattered Clouds
4:20 PM 84.2 °F 85.6 °F 64.4 °F 51% 29.92 in 6.2 mi SSE 10.4 mph - N/A   Mostly Cloudy
4:50 PM 78.8 °F - 66.2 °F 65% 29.92 in 6.2 mi ESE 11.5 mph - N/A   Mostly Cloudy
5:20 PM 69.8 °F - 68.0 °F 94% 29.98 in 1.9 mi NNW 8.1 mph - N/A Rain , Thunderstorm Heavy Thunderstorms and Rain
5:50 PM 69.8 °F - 68.0 °F 94% 29.98 in 2.5 mi East 6.9 mph - N/A Rain , Thunderstorm Thunderstorms and Rain
6:20 PM 69.8 °F - 68.0 °F 94% 29.98 in 5.0 mi Calm Calm - N/A Rain Light Rain
6:50 PM 71.6 °F - 69.8 °F 94% 29.98 in 6.2 mi Calm Calm - N/A Rain Light Rain
7:20 PM 71.6 °F - 68.0 °F 88% 29.98 in 6.2 mi Calm Calm - N/A   Mostly Cloudy
7:50 PM 71.6 °F - 68.0 °F 88% 29.98 in 6.2 mi Calm Calm - N/A   Mostly Cloudy
8:20 PM 69.8 °F - 68.0 °F 94% 29.98 in 6.2 mi Calm Calm - N/A   Mostly Cloudy
8:50 PM 69.8 °F - 68.0 °F 94% 29.98 in 6.2 mi Calm Calm - N/A   Mostly Cloudy
9:50 PM 69.8 °F - 68.0 °F 94% 29.98 in 6.2 mi NNW 5.8 mph - N/A   Mostly Cloudy
11:50 PM 69.8 °F - 66.2 °F 88% 29.95 in 6.2 mi Calm Calm - N/A   Scattered Clouds